Regional Weather Roundup
Issued by NWS

Home | Current Version | Previous Version | Text Only | Print | Product List | Glossary Off
Versions: 1 2 3 4 5 6 7 8 9 10 11 12 13 14 15 16 17 18 19 20 21 22 23 24 25 26 27 28 29 30 31 32 33 34 35 36 37 38 39 40 41 42 43 44 45 46 47 48 49 50

000
ASUS43 KOAX 221502
RWRNE

WEATHER ROUNDUP FOR NEBRASKA
NATIONAL WEATHER SERVICE OMAHA NE
1000 AM CDT FRI AUG 22 2014

NOTES: SATELLITE DATA IS BEING USED TO AUGMENT CLOUD COVER ABOVE
       12000 FEET.
       "FAIR" INDICATES FEW OR NO CLOUDS BELOW 12,000 FEET WITH NO
       SIGNIFICANT WEATHER AND/OR OBSTRUCTIONS TO VISIBILITY.

  * THESE STATIONS DO NOT REPORT WEATHER SUCH AS RAIN...SNOW OR FOG.

NEZ001>004-019>022-054>056-221600-
NEBRASKA PANHANDLE

CITY           SKY/WX    TMP DP  RH WIND       PRES   REMARKS
SCOTTSBLUFF    CLOUDY    65  56  72 NW6       30.11S
ALLIANCE       CLOUDY    68  54  60 N12       30.11R
CHADRON        CLOUDY    65  58  78 NW6       30.10R
KIMBALL        CLOUDY    63  59  86 W3        30.14S
SIDNEY         LGT RAIN  64  61  90 CALM      30.13S
$$

NEZ057>060-069>072-079>082-221600-
SOUTHWEST NEBRASKA

CITY           SKY/WX    TMP DP  RH WIND       PRES   REMARKS
NORTH PLATTE   LGT RAIN  71  64  78 N6        30.02F
IMPERIAL       PTSUNNY   71  59  65 N13G21    30.03R
LEXINGTON      MOSUNNY   77  73  86 N9        30.00S
MCCOOK         MOSUNNY   81  65  58 N15G24    30.00S
OGALLALA       RAIN      63  60  88 S6        30.09R
$$

NEZ005>010-023>029-035>040-094-221600-
NORTH CENTRAL NEBRASKA

CITY           SKY/WX    TMP DP  RH WIND       PRES   REMARKS
VALENTINE      CLOUDY    71  63  75 CALM      30.02R
AINSWORTH      CLOUDY    71  67  88 CALM      30.02S
BROKEN BOW     PTSUNNY   78  71  79 NW5       30.01R
O`NEILL        SUNNY     77  71  82 CALM      30.00R
ORD            MOSUNNY   78  72  81 NW5       29.96R
THEDFORD       CLOUDY    71  67  87 CALM      30.05S
$$

NEZ041-046>049-061>064-073>077-083>087-221600-
SOUTH CENTRAL NEBRASKA

CITY           SKY/WX    TMP DP  RH WIND       PRES   REMARKS
GRAND ISLAND   SUNNY     78  70  76 E7        29.95S
AURORA         SUNNY     78  75  90 CALM      29.95R
HASTINGS       SUNNY     79  67  66 E5        29.95R
HEBRON         MOSUNNY   79  70  73 SE5       29.92F
HOLDREGE       MOSUNNY   74  70  87 N7        29.98R
KEARNEY *      PTSUNNY   73  72  94 N3        29.98R
YORK           LGT RAIN  79 N/A N/A CALM      29.94R
$$

NEZ011>018-030>034-042>045-221600-
NORTHEAST NEBRASKA

CITY           SKY/WX    TMP DP  RH WIND       PRES   REMARKS
NORFOLK        SUNNY     82  71  69 NE5       29.94S
ALBION         MOSUNNY   79  70  75 E7        29.96R
BLAIR          SUNNY     83  74  75 SE5       29.93R
FREMONT        SUNNY     83  72  69 N3        29.93R
TEKAMAH        SUNNY     82  74  76 CALM      29.92R
WAYNE          SUNNY     79  74  84 NE6       29.95S
$$

NEZ050>053-065>068-078-088>093-221600-
SOUTHEAST NEBRASKA

CITY           SKY/WX    TMP DP  RH WIND       PRES   REMARKS
LINCOLN        SUNNY     83  74  74 E6        29.93R
OMAHA EPPLEY   PTSUNNY   80  72  76 CALM      29.92R
BEATRICE       MOSUNNY   80  73  81 SE12      29.93S
FALLS CITY     TSTM      79  70  74 SW8       29.92F
NEBRASKA CITY  MOSUNNY   78  75  92 S10       29.94R
PLATTSMOUTH    SUNNY     80  74  81 SE5       29.93S
$$

NEZ044-045-051>053-067-221600-
OMAHA AREA

CITY           SKY/WX    TMP DP  RH WIND       PRES   REMARKS
OMAHA EPPLEY   PTSUNNY   80  72  76 CALM      29.92R
BLAIR          SUNNY     83  74  75 SE5       29.93R
FREMONT        SUNNY     83  72  69 N3        29.93R
MILLARD        SUNNY     82  75  79 SE5       29.92R
OFFUTT AFB     PTSUNNY   81  81 100 S3        29.92R HX  91
PLATTSMOUTH    SUNNY     80  74  81 SE5       29.93S
WAHOO          FAIR      82  73  74 E3        29.93R
$$



USA.gov is the U.S. government's official web portal to all federal, state and local government web resources and services.